Location: Beetenbrück
(52.8113°N, 9.5946°E)
Time: 17:08:13
(UTC+00:00)

CZ-2C R/B - Pass Details

Date: 14 April 2026
Orbit: 344 x 360 km, 97.7° (Epoch: 9 May)

Event Time Altitude Azimuth Distance (km) Brightness Sun altitude
Exits shadow 21:33:18 20° 276° (W) 946 4.4 -23.4°
Drops below altitude 10° 21:35:13 10° 316° (NW) 1,384 5.9 -23.5°
Sets 21:37:29 0° 334° (NNW) 2,234 7.4 -23.7°
